Precipitable_Water
0.26 0.18 0.19 0.15 0.19 0.20 0.19 0.19 0.19 0.23 0.21 0.22 0.20 0.18 0.14 0.17 0.17 0.15 0.19 0.27 0.27 0.22 0.19 0.16 0.16 0.19 0.20 0.18 0.19 0.39 0.44 0.35 0.34 0.39 0.63 0.66 0.63 0.61 0.65 0.67 0.69 0.71 0.79 0.93 0.96 0.98 1.06 1.08 1.10 1.12 1.14 1.24 1.29 1.33 1.32 1.36 1.44 1.37 1.32 1.36 1.35 1.39 1.37 1.29 1.22 1.21 1.17 1.05 1.02 1.04 0.99 0.99 1.03 1.04 1.04 1.07 1.04 1.05 1.04 1.03 1.04 1.06 1.13 1.18 1.18 1.12
0.26 0.18 0.20 0.19 0.21 0.25 0.23 0.19 0.22 0.24 0.23 0.21 0.20 0.18 0.16 0.17 0.17 0.17 0.16 0.26 0.30 0.23 0.22 0.22 0.22 0.20 0.19 0.20 0.21 0.41 0.49 0.39 0.36 0.42 0.58 0.61 0.67 0.61 0.67 0.67 0.69 0.77 0.88 0.94 0.93 0.97 1.05 1.08 1.08 1.09 1.14 1.24 1.20 1.29 1.28 1.32 1.34 1.35 1.37 1.37 1.39 1.40 1.37 1.34 1.30 1.28 1.13 1.09 1.07 0.98 0.96 0.98 1.00 0.94 0.96 0.94 0.94 0.95 0.94 0.90 0.92 0.95 0.96 0.97 0.98 1.01
0.19 0.17 0.22 0.23 0.25 0.30 0.29 0.26 0.25 0.23 0.22 0.20 0.18 0.17 0.16 0.17 0.19 0.21 0.19 0.27 0.28 0.24 0.18 0.23 0.22 0.21 0.21 0.22 0.29 0.51 0.50 0.45 0.42 0.48 0.58 0.58 0.63 0.59 0.63 0.67 0.70 0.77 0.82 0.89 0.91 0.95 0.99 1.08 1.15 1.16 1.19 1.21 1.25 1.28 1.31 1.36 1.33 1.32 1.38 1.40 1.40 1.40 1.36 1.35 1.33 1.21 1.09 1.07 1.10 1.06 1.00 1.00 0.94 0.97 0.98 0.95 0.87 0.82 0.80 0.81 0.85 0.90 0.89 0.89 0.89 0.89
0.19 0.16 0.22 0.26 0.28 0.28 0.27 0.25 0.22 0.21 0.20 0.18 0.15 0.16 0.15 0.18 0.16 0.18 0.26 0.28 0.28 0.24 0.19 0.24 0.25 0.23 0.23 0.28 0.40 0.50 0.46 0.50 0.53 0.55 0.60 0.63 0.61 0.56 0.67 0.69 0.66 0.75 0.80 0.81 0.86 0.90 1.00 1.13 1.16 1.24 1.21 1.18 1.19 1.21 1.28 1.25 1.25 1.30 1.29 1.29 1.36 1.37 1.36 1.35 1.28 1.14 1.14 1.12 1.14 1.07 1.03 1.06 1.04 1.00 1.04 0.94 0.83 0.78 0.77 0.80 0.82 0.87 0.84 0.87 0.85 0.81
0.22 0.28 0.25 0.25 0.28 0.26 0.22 0.21 0.18 0.16 0.15 0.16 0.18 0.17 0.18 0.19 0.18 0.17 0.25 0.30 0.28 0.26 0.22 0.30 0.25 0.21 0.26 0.30 0.36 0.47 0.58 0.61 0.61 0.61 0.65 0.65 0.70 0.73 0.76 0.71 0.73 0.79 0.82 0.84 0.88 0.97 1.10 1.15 1.21 1.16 1.21 1.20 1.10 1.15 1.17 1.23 1.29 1.36 1.36 1.33 1.35 1.35 1.33 1.29 1.16 1.13 1.14 1.10 1.04 1.00 1.02 1.03 1.00 0.95 0.84 0.74 0.76 0.85 0.80 0.76 0.79 0.76 0.81 0.83 0.83 0.82
0.24 0.30 0.33 0.28 0.27 0.22 0.18 0.18 0.17 0.17 0.15 0.16 0.17 0.20 0.22 0.24 0.23 0.21 0.28 0.31 0.28 0.23 0.21 0.19 0.16 0.18 0.31 0.32 0.34 0.47 0.47 0.50 0.55 0.56 0.63 0.67 0.71 0.73 0.67 0.65 0.76 0.85 0.93 0.93 0.99 1.07 1.08 1.09 1.15 1.17 1.11 1.02 1.05 1.08 1.16 1.27 1.34 1.38 1.37 1.33 1.35 1.33 1.34 1.22 1.10 1.10 1.13 1.06 0.98 0.89 0.86 0.83 0.76 0.71 0.73 0.75 0.70 0.72 0.80 0.77 0.76 0.81 0.85 0.84 0.84 0.82
0.23 0.33 0.27 0.24 0.23 0.20 0.18 0.20 0.22 0.18 0.16 0.16 0.17 0.17 0.25 0.29 0.26 0.24 0.26 0.25 0.23 0.21 0.27 0.19 0.17 0.18 0.28 0.29 0.29 0.35 0.38 0.37 0.48 0.54 0.63 0.71 0.73 0.79 0.71 0.72 0.79 0.87 0.96 1.03 1.05 1.02 0.95 0.96 0.93 0.87 0.93 1.00 1.00 1.10 1.18 1.27 1.33 1.31 1.32 1.28 1.26 1.27 1.28 1.18 1.14 1.20 1.20 1.07 1.01 0.91 0.84 0.80 0.80 0.77 0.84 0.84 0.85 0.84 0.76 0.76 0.77 0.79 0.80 0.81 0.82 0.82
0.21 0.28 0.25 0.22 0.21 0.20 0.18 0.18 0.24 0.19 0.18 0.20 0.28 0.23 0.24 0.28 0.26 0.26 0.26 0.24 0.23 0.27 0.39 0.27 0.22 0.21 0.23 0.27 0.31 0.44 0.40 0.38 0.53 0.55 0.57 0.55 0.73 0.68 0.69 0.79 0.88 0.97 0.99 0.95 1.01 0.95 0.92 0.89 0.89 0.82 0.94 1.02 1.06 1.13 1.21 1.24 1.26 1.26 1.14 1.24 1.30 1.31 1.27 1.25 1.24 1.30 1.24 1.06 0.97 0.95 0.92 0.92 0.88 0.87 0.85 0.82 0.80 0.78 0.77 0.72 0.71 0.70 0.73 0.76 0.78 0.80
0.21 0.21 0.23 0.20 0.21 0.21 0.20 0.21 0.26 0.22 0.19 0.29 0.34 0.30 0.22 0.22 0.24 0.24 0.23 0.24 0.24 0.26 0.25 0.27 0.23 0.21 0.25 0.29 0.39 0.44 0.40 0.46 0.47 0.45 0.51 0.66 0.71 0.78 0.71 0.92 0.99 1.05 0.96 0.96 0.93 0.90 0.87 0.85 0.85 0.90 0.96 1.07 1.09 1.16 1.20 1.22 1.23 1.30 1.24 1.24 1.32 1.28 1.26 1.30 1.27 1.21 1.15 1.09 1.12 1.10 1.06 0.90 0.89 0.91 0.80 0.77 0.75 0.74 0.75 0.74 0.73 0.73 0.74 0.78 0.78 0.76
0.26 0.23 0.24 0.21 0.20 0.20 0.22 0.24 0.26 0.23 0.21 0.30 0.35 0.32 0.28 0.26 0.25 0.24 0.23 0.23 0.26 0.24 0.23 0.26 0.25 0.19 0.22 0.33 0.37 0.39 0.36 0.37 0.46 0.51 0.61 0.75 0.69 0.75 0.84 0.99 0.94 1.00 0.96 0.95 0.98 0.94 0.90 0.88 0.88 0.93 0.95 1.02 1.08 1.16 1.21 1.20 1.10 1.11 1.22 1.24 1.29 1.30 1.29 1.25 1.20 1.13 1.12 1.09 1.01 1.06 0.99 0.88 0.83 0.79 0.75 0.76 0.74 0.72 0.74 0.74 0.71 0.68 0.68 0.69 0.71 0.71
0.32 0.29 0.30 0.23 0.21 0.27 0.30 0.28 0.28 0.24 0.24 0.40 0.32 0.29 0.27 0.25 0.23 0.24 0.25 0.26 0.25 0.21 0.22 0.26 0.29 0.24 0.19 0.28 0.32 0.30 0.29 0.37 0.45 0.57 0.63 0.65 0.66 0.69 0.83 0.92 0.92 0.94 0.94 0.98 0.98 0.95 0.93 0.92 0.91 0.91 0.90 0.96 1.07 1.16 1.19 1.18 1.17 1.16 1.14 1.13 1.12 1.17 1.21 1.19 1.13 1.09 1.03 0.99 0.95 0.99 0.99 0.87 0.79 0.77 0.76 0.73 0.70 0.71 0.72 0.68 0.72 0.75 0.73 0.71 0.64 0.64
0.25 0.31 0.27 0.26 0.29 0.31 0.33 0.32 0.31 0.28 0.25 0.28 0.30 0.24 0.23 0.21 0.22 0.22 0.21 0.23 0.20 0.20 0.23 0.25 0.28 0.30 0.20 0.28 0.33 0.38 0.42 0.36 0.46 0.50 0.52 0.53 0.53 0.56 0.66 0.86 0.90 0.95 0.95 0.98 0.97 0.91 0.92 0.91 0.91 0.93 0.92 0.97 1.03 1.12 1.21 1.21 1.20 1.16 1.16 1.11 1.06 1.13 1.15 1.14 1.05 1.01 1.02 0.98 1.00 1.02 0.96 0.84 0.84 0.80 0.73 0.69 0.68 0.70 0.71 0.74 0.76 0.78 0.74 0.66 0.63 0.64
0.22 0.24 0.26 0.25 0.27 0.28 0.27 0.25 0.23 0.22 0.26 0.25 0.27 0.24 0.20 0.20 0.20 0.18 0.19 0.17 0.17 0.18 0.25 0.27 0.29 0.26 0.24 0.33 0.36 0.44 0.49 0.58 0.59 0.58 0.53 0.51 0.56 0.63 0.67 0.68 0.88 0.99 0.99 0.99 0.91 0.90 0.90 0.89 0.90 0.90 0.94 0.98 0.99 1.05 1.16 1.15 1.17 1.16 1.11 1.08 1.06 1.09 1.16 1.13 1.02 1.00 1.03 1.05 1.03 0.99 0.87 0.88 0.88 0.81 0.73 0.70 0.70 0.73 0.73 0.75 0.73 0.73 0.68 0.64 0.63 0.64
0.20 0.25 0.24 0.24 0.26 0.26 0.26 0.20 0.23 0.19 0.21 0.22 0.23 0.23 0.21 0.20 0.18 0.16 0.18 0.18 0.18 0.20 0.29 0.29 0.33 0.25 0.29 0.33 0.42 0.53 0.58 0.58 0.64 0.60 0.57 0.63 0.66 0.71 0.69 0.73 0.82 0.91 1.00 0.95 0.93 0.90 0.93 0.94 0.93 0.92 0.95 0.96 0.99 1.04 1.10 1.16 1.17 1.13 1.08 1.06 1.04 1.08 1.15 1.15 1.06 1.05 1.05 1.07 1.06 0.99 0.92 0.92 0.90 0.82 0.77 0.73 0.73 0.74 0.75 0.74 0.72 0.71 0.68 0.68 0.65 0.64
0.18 0.18 0.21 0.24 0.23 0.28 0.24 0.24 0.28 0.26 0.24 0.22 0.25 0.26 0.24 0.22 0.21 0.17 0.18 0.18 0.17 0.20 0.26 0.30 0.26 0.23 0.21 0.35 0.49 0.53 0.59 0.62 0.60 0.57 0.59 0.60 0.65 0.67 0.67 0.69 0.70 0.77 0.89 0.94 0.96 0.94 0.96 0.98 1.00 0.97 0.98 1.00 1.02 1.05 1.11 1.12 1.16 1.18 1.10 1.06 1.10 1.08 1.10 1.15 1.14 1.11 1.08 1.08 1.09 1.03 1.00 0.97 0.95 0.86 0.81 0.78 0.78 0.77 0.74 0.73 0.73 0.73 0.73 0.69 0.68 0.69
0.21 0.21 0.25 0.26 0.27 0.30 0.24 0.24 0.31 0.31 0.28 0.28 0.27 0.28 0.25 0.25 0.29 0.22 0.28 0.24 0.23 0.23 0.25 0.28 0.24 0.22 0.24 0.46 0.52 0.58 0.57 0.60 0.58 0.61 0.62 0.62 0.65 0.65 0.64 0.65 0.68 0.73 0.77 0.81 0.87 0.89 0.89 0.95 1.00 1.02 1.03 1.05 1.04 1.04 1.07 1.13 1.16 1.15 1.11 1.13 1.14 1.10 1.11 1.15 1.17 1.11 1.06 1.04 1.08 1.08 1.05 1.01 0.96 0.91 0.89 0.83 0.80 0.77 0.75 0.75 0.75 0.74 0.74 0.73 0.71 0.71
0.25 0.23 0.27 0.28 0.28 0.28 0.28 0.27 0.28 0.32 0.24 0.29 0.28 0.24 0.25 0.30 0.27 0.24 0.24 0.29 0.27 0.22 0.22 0.30 0.28 0.25 0.33 0.35 0.40 0.44 0.53 0.57 0.57 0.57 0.63 0.63 0.64 0.67 0.63 0.64 0.67 0.71 0.74 0.79 0.83 0.85 0.87 0.90 0.95 0.99 1.02 1.05 1.05 1.01 1.03 1.05 1.12 1.15 1.16 1.16 1.13 1.13 1.15 1.16 1.21 1.17 1.12 0.99 1.05 1.07 1.07 1.07 0.99 0.98 0.92 0.81 0.80 0.76 0.76 0.78 0.77 0.76 0.77 0.76 0.72 0.72
0.25 0.24 0.27 0.27 0.26 0.31 0.33 0.31 0.30 0.31 0.32 0.36 0.28 0.28 0.32 0.31 0.29 0.27 0.21 0.24 0.19 0.17 0.18 0.22 0.23 0.24 0.24 0.23 0.38 0.42 0.46 0.47 0.54 0.53 0.60 0.64 0.67 0.64 0.65 0.69 0.71 0.75 0.82 0.87 0.89 0.90 0.91 0.94 0.95 1.00 1.03 1.03 1.03 1.03 1.02 1.04 1.12 1.14 1.16 1.16 1.13 1.12 1.12 1.16 1.20 1.17 1.15 1.02 1.00 1.07 1.06 1.07 1.03 0.97 0.95 0.87 0.81 0.78 0.76 0.77 0.78 0.80 0.77 0.75 0.73 0.73
0.32 0.25 0.29 0.30 0.30 0.32 0.32 0.31 0.29 0.31 0.31 0.29 0.30 0.39 0.28 0.23 0.20 0.24 0.22 0.17 0.17 0.16 0.16 0.19 0.23 0.23 0.24 0.25 0.34 0.36 0.39 0.52 0.50 0.49 0.52 0.60 0.65 0.67 0.68 0.69 0.73 0.74 0.75 0.75 0.77 0.81 0.85 0.88 0.93 0.97 0.99 1.04 1.05 1.07 1.09 1.07 1.08 1.11 1.15 1.20 1.19 1.18 1.20 1.19 1.19 1.17 1.18 1.16 1.08 1.08 1.10 1.11 1.08 1.04 1.03 0.92 0.83 0.78 0.74 0.73 0.78 0.76 0.78 0.78 0.75 0.74
0.38 0.27 0.30 0.34 0.30 0.31 0.30 0.28 0.23 0.25 0.28 0.29 0.31 0.29 0.32 0.28 0.26 0.22 0.22 0.21 0.20 0.18 0.18 0.18 0.22 0.21 0.25 0.29 0.37 0.36 0.42 0.55 0.48 0.49 0.51 0.53 0.57 0.65 0.65 0.66 0.69 0.68 0.70 0.73 0.73 0.78 0.81 0.83 0.90 0.96 0.97 1.01 1.04 1.05 1.08 1.08 1.06 1.01 1.01 1.08 1.13 1.16 1.17 1.18 1.15 1.15 1.12 1.15 1.10 1.14 1.15 1.15 1.11 1.04 1.02 0.96 0.83 0.78 0.74 0.73 0.76 0.77 0.79 0.75 0.76 0.76
0.33 0.37 0.27 0.33 0.35 0.31 0.25 0.26 0.24 0.25 0.26 0.25 0.23 0.24 0.27 0.27 0.31 0.28 0.32 0.26 0.22 0.19 0.19 0.18 0.18 0.22 0.35 0.36 0.33 0.40 0.58 0.59 0.58 0.61 0.62 0.61 0.61 0.68 0.69 0.67 0.66 0.68 0.69 0.71 0.72 0.74 0.76 0.79 0.84 0.90 0.94 0.98 1.01 1.03 1.04 1.04 1.01 1.01 1.03 1.05 1.09 1.08 1.08 1.11 1.14 1.12 1.12 1.14 1.13 1.16 1.14 1.14 1.11 1.06 1.07 1.01 0.89 0.81 0.77 0.76 0.76 0.77 0.77 0.74 0.74 0.75
0.30 0.33 0.28 0.34 0.32 0.28 0.27 0.30 0.28 0.27 0.28 0.30 0.28 0.25 0.25 0.25 0.23 0.20 0.20 0.30 0.29 0.23 0.21 0.20 0.19 0.30 0.41 0.53 0.43 0.47 0.56 0.55 0.64 0.61 0.69 0.67 0.65 0.68 0.68 0.67 0.67 0.68 0.70 0.69 0.71 0.72 0.72 0.75 0.77 0.81 0.87 0.88 0.90 0.93 0.92 0.95 0.98 0.97 1.01 1.07 1.10 1.11 1.10 1.08 1.11 1.12 1.14 1.13 1.16 1.20 1.15 1.13 1.13 1.13 1.08 1.07 1.01 0.85 0.78 0.73 0.72 0.73 0.73 0.72 0.73 0.74
0.42 0.38 0.33 0.29 0.30 0.33 0.32 0.32 0.32 0.31 0.31 0.30 0.31 0.28 0.29 0.27 0.27 0.24 0.18 0.21 0.24 0.25 0.26 0.24 0.22 0.30 0.45 0.52 0.51 0.50 0.51 0.55 0.63 0.62 0.59 0.62 0.63 0.66 0.68 0.69 0.69 0.70 0.70 0.71 0.68 0.71 0.72 0.74 0.77 0.81 0.82 0.81 0.81 0.86 0.89 0.90 0.91 0.93 0.98 1.05 1.06 1.06 1.05 1.04 1.00 1.04 1.09 1.13 1.15 1.17 1.13 1.12 1.11 1.11 1.08 1.09 1.04 0.90 0.79 0.74 0.73 0.72 0.71 0.73 0.73 0.75
0.44 0.33 0.31 0.31 0.34 0.35 0.35 0.34 0.34 0.33 0.31 0.29 0.30 0.33 0.32 0.28 0.29 0.26 0.26 0.27 0.26 0.26 0.24 0.22 0.19 0.28 0.45 0.52 0.52 0.49 0.52 0.56 0.62 0.59 0.58 0.57 0.59 0.61 0.68 0.69 0.69 0.70 0.77 0.75 0.73 0.72 0.71 0.74 0.77 0.79 0.78 0.79 0.81 0.80 0.82 0.85 0.88 0.92 0.94 0.96 0.98 0.99 1.01 1.02 1.02 1.03 1.04 1.04 1.04 1.06 1.05 1.04 1.06 1.06 1.08 1.07 1.05 0.95 0.82 0.74 0.76 0.75 0.72 0.72 0.74 0.73
0.30 0.34 0.33 0.30 0.28 0.31 0.31 0.31 0.30 0.32 0.31 0.28 0.28 0.30 0.31 0.32 0.32 0.33 0.33 0.35 0.26 0.25 0.27 0.24 0.19 0.29 0.46 0.49 0.53 0.49 0.51 0.49 0.58 0.62 0.65 0.61 0.63 0.65 0.68 0.75 0.74 0.75 0.74 0.72 0.69 0.70 0.69 0.72 0.68 0.73 0.71 0.70 0.75 0.78 0.83 0.85 0.89 0.92 0.94 0.96 0.98 1.00 1.05 1.07 1.09 1.03 0.98 0.96 0.96 0.97 0.98 0.99 1.02 1.02 1.04 1.06 1.05 1.00 0.92 0.79 0.77 0.77 0.72 0.73 0.73 0.73
0.36 0.36 0.33 0.26 0.23 0.22 0.22 0.22 0.23 0.25 0.27 0.28 0.30 0.31 0.33 0.31 0.31 0.30 0.26 0.29 0.24 0.27 0.27 0.25 0.28 0.38 0.48 0.50 0.49 0.50 0.48 0.58 0.72 0.72 0.69 0.69 0.71 0.64 0.69 0.74 0.72 0.74 0.75 0.73 0.72 0.73 0.71 0.69 0.73 0.71 0.74 0.70 0.78 0.87 0.87 0.86 0.87 0.93 0.90 0.96 0.99 0.96 0.97 1.00 1.02 1.02 0.98 0.95 0.91 0.90 0.90 0.92 0.97 1.01 1.04 1.06 1.07 1.04 0.98 0.85 0.78 0.76 0.76 0.76 0.71 0.73
0.38 0.41 0.37 0.33 0.31 0.32 0.33 0.33 0.36 0.37 0.33 0.28 0.28 0.30 0.32 0.33 0.33 0.33 0.31 0.27 0.23 0.26 0.25 0.30 0.34 0.38 0.43 0.50 0.53 0.55 0.56 0.64 0.66 0.67 0.65 0.63 0.65 0.68 0.68 0.71 0.70 0.69 0.71 0.73 0.73 0.77 0.78 0.75 0.74 0.76 0.77 0.84 0.87 0.87 0.92 0.93 0.90 0.96 0.97 0.99 1.01 0.95 0.93 0.95 0.96 0.99 0.99 0.97 0.96 0.94 0.94 0.97 1.02 1.04 1.05 1.05 1.06 1.06 1.03 0.95 0.85 0.78 0.73 0.73 0.69 0.72
0.38 0.33 0.35 0.35 0.36 0.39 0.42 0.40 0.39 0.38 0.34 0.32 0.31 0.32 0.33 0.34 0.34 0.33 0.29 0.27 0.35 0.27 0.24 0.36 0.43 0.39 0.43 0.52 0.55 0.57 0.58 0.61 0.67 0.66 0.65 0.65 0.66 0.67 0.70 0.69 0.69 0.67 0.70 0.71 0.71 0.70 0.71 0.73 0.78 0.79 0.81 0.81 0.85 0.82 0.87 0.92 0.93 0.93 0.95 0.98 1.00 1.00 1.00 1.01 1.00 1.00 1.04 1.05 1.10 1.07 1.07 1.07 1.09 1.11 1.08 1.08 1.09 1.07 1.00 0.98 0.91 0.81 0.73 0.72 0.71 0.74
0.35 0.30 0.37 0.36 0.36 0.38 0.41 0.44 0.42 0.38 0.36 0.37 0.37 0.38 0.36 0.38 0.36 0.30 0.32 0.35 0.37 0.29 0.29 0.37 0.42 0.44 0.46 0.49 0.54 0.57 0.60 0.62 0.64 0.65 0.68 0.70 0.72 0.71 0.68 0.66 0.68 0.68 0.65 0.68 0.70 0.71 0.71 0.71 0.74 0.75 0.74 0.75 0.79 0.82 0.89 0.88 0.89 0.90 0.96 0.96 0.96 1.00 1.01 1.05 1.05 1.03 1.00 0.97 0.97 1.03 1.03 1.04 1.10 1.09 1.09 1.08 1.05 1.06 1.00 0.98 0.97 0.93 0.84 0.79 0.74 0.79
0.36 0.34 0.40 0.38 0.36 0.37 0.38 0.41 0.42 0.40 0.38 0.38 0.39 0.37 0.38 0.37 0.37 0.38 0.37 0.37 0.35 0.33 0.39 0.42 0.46 0.46 0.49 0.47 0.51 0.56 0.60 0.61 0.68 0.72 0.75 0.74 0.69 0.67 0.70 0.68 0.66 0.66 0.69 0.71 0.71 0.71 0.69 0.69 0.69 0.71 0.75 0.72 0.76 0.78 0.80 0.80 0.85 0.89 0.89 0.91 0.96 0.99 0.99 1.00 0.99 0.99 0.97 0.96 1.00 0.99 1.03 1.09 1.06 1.06 1.09 1.07 1.07 1.07 1.08 1.06 1.05 0.99 0.96 0.89 0.82 0.85
0.35 0.35 0.37 0.37 0.35 0.35 0.38 0.40 0.42 0.42 0.40 0.36 0.38 0.37 0.37 0.37 0.35 0.37 0.36 0.36 0.35 0.36 0.36 0.40 0.39 0.40 0.47 0.55 0.53 0.61 0.62 0.66 0.67 0.66 0.70 0.73 0.71 0.74 0.74 0.71 0.70 0.65 0.68 0.69 0.75 0.72 0.69 0.68 0.70 0.72 0.75 0.79 0.80 0.81 0.80 0.80 0.84 0.83 0.88 0.92 0.92 0.89 0.92 0.94 0.92 0.92 0.92 0.93 0.95 0.98 0.98 0.98 0.99 1.00 1.01 1.04 1.05 1.04 1.04 1.04 1.06 1.03 1.03 0.95 0.92 0.90
0.37 0.36 0.38 0.36 0.30 0.31 0.35 0.37 0.39 0.41 0.41 0.39 0.38 0.39 0.38 0.36 0.32 0.35 0.34 0.37 0.34 0.37 0.37 0.33 0.31 0.38 0.44 0.50 0.54 0.57 0.60 0.61 0.59 0.60 0.61 0.63 0.68 0.71 0.72 0.75 0.73 0.71 0.70 0.70 0.71 0.70 0.70 0.69 0.70 0.71 0.74 0.77 0.81 0.83 0.81 0.80 0.81 0.80 0.80 0.82 0.84 0.86 0.88 0.93 0.91 0.90 0.91 0.91 0.91 0.92 0.93 0.92 0.95 0.95 0.97 0.99 1.00 1.04 1.03 1.05 1.04 1.04 1.02 0.99 0.95 0.94
0.36 0.36 0.33 0.32 0.27 0.28 0.35 0.36 0.36 0.37 0.38 0.34 0.34 0.38 0.40 0.40 0.41 0.41 0.40 0.40 0.38 0.38 0.33 0.31 0.34 0.45 0.44 0.45 0.43 0.45 0.47 0.48 0.49 0.52 0.59 0.62 0.65 0.64 0.62 0.67 0.73 0.73 0.71 0.69 0.74 0.71 0.70 0.69 0.68 0.69 0.69 0.70 0.76 0.80 0.83 0.85 0.83 0.82 0.81 0.82 0.82 0.85 0.92 0.91 0.91 0.91 0.92 0.95 0.95 0.92 0.92 0.92 0.92 0.93 0.92 0.96 0.98 1.03 1.05 1.06 1.02 1.01 1.01 0.99 1.02 1.01
0.37 0.37 0.31 0.34 0.26 0.30 0.35 0.36 0.37 0.32 0.23 0.26 0.44 0.46 0.44 0.42 0.42 0.39 0.39 0.39 0.41 0.43 0.42 0.46 0.46 0.48 0.46 0.45 0.41 0.41 0.42 0.44 0.48 0.52 0.58 0.63 0.64 0.63 0.65 0.68 0.65 0.66 0.69 0.70 0.71 0.71 0.69 0.68 0.68 0.69 0.69 0.70 0.71 0.75 0.79 0.82 0.82 0.84 0.89 0.87 0.84 0.84 0.85 0.84 0.83 0.81 0.83 0.88 0.87 0.91 0.91 0.91 0.90 0.89 0.90 0.94 0.97 0.98 0.96 0.96 0.96 0.98 0.97 1.00 1.01 1.00
0.37 0.36 0.32 0.34 0.28 0.28 0.35 0.34 0.29 0.22 0.25 0.41 0.47 0.49 0.49 0.46 0.44 0.44 0.42 0.44 0.42 0.43 0.45 0.45 0.46 0.46 0.47 0.47 0.46 0.46 0.47 0.49 0.50 0.50 0.54 0.57 0.62 0.65 0.66 0.72 0.76 0.73 0.71 0.72 0.71 0.68 0.66 0.65 0.64 0.64 0.67 0.71 0.74 0.74 0.73 0.72 0.76 0.79 0.79 0.78 0.75 0.75 0.73 0.73 0.74 0.74 0.76 0.81 0.81 0.82 0.86 0.87 0.87 0.84 0.88 0.88 0.88 0.88 0.90 0.91 0.92 0.92 0.96 0.97 0.98 0.96
0.34 0.33 0.32 0.32 0.33 0.35 0.31 0.29 0.20 0.22 0.37 0.42 0.43 0.45 0.47 0.46 0.45 0.41 0.38 0.41 0.43 0.44 0.44 0.42 0.42 0.43 0.44 0.42 0.43 0.44 0.43 0.44 0.45 0.48 0.50 0.52 0.55 0.57 0.60 0.59 0.65 0.72 0.75 0.77 0.75 0.73 0.72 0.71 0.67 0.65 0.67 0.71 0.72 0.72 0.73 0.72 0.72 0.71 0.70 0.70 0.68 0.67 0.66 0.65 0.63 0.63 0.65 0.67 0.70 0.73 0.75 0.74 0.74 0.76 0.78 0.79 0.81 0.81 0.83 0.86 0.87 0.84 0.85 0.86 0.88 0.90
0.38 0.34 0.31 0.27 0.33 0.25 0.28 0.28 0.26 0.35 0.35 0.36 0.36 0.37 0.40 0.37 0.38 0.36 0.29 0.35 0.42 0.44 0.43 0.41 0.42 0.42 0.43 0.44 0.43 0.44 0.44 0.43 0.40 0.40 0.44 0.47 0.49 0.52 0.52 0.54 0.57 0.60 0.63 0.68 0.71 0.72 0.73 0.72 0.70 0.68 0.68 0.71 0.73 0.73 0.73 0.74 0.75 0.73 0.70 0.67 0.67 0.66 0.64 0.64 0.62 0.61 0.60 0.61 0.62 0.64 0.64 0.65 0.65 0.66 0.67 0.67 0.71 0.74 0.77 0.78 0.79 0.79 0.81 0.79 0.80 0.81
0.41 0.32 0.36 0.27 0.26 0.29 0.26 0.25 0.27 0.27 0.23 0.31 0.39 0.42 0.46 0.47 0.45 0.45 0.36 0.33 0.41 0.43 0.44 0.42 0.40 0.41 0.41 0.41 0.43 0.44 0.44 0.38 0.34 0.36 0.42 0.44 0.45 0.46 0.51 0.54 0.57 0.58 0.59 0.61 0.64 0.67 0.67 0.70 0.70 0.73 0.73 0.70 0.71 0.73 0.73 0.75 0.74 0.72 0.70 0.69 0.69 0.67 0.67 0.67 0.66 0.66 0.65 0.64 0.64 0.65 0.64 0.64 0.64 0.63 0.65 0.65 0.67 0.68 0.68 0.71 0.72 0.73 0.72 0.70 0.68 0.68
0.36 0.39 0.38 0.33 0.28 0.29 0.24 0.20 0.23 0.23 0.28 0.38 0.41 0.42 0.44 0.44 0.44 0.45 0.33 0.28 0.38 0.41 0.41 0.42 0.40 0.41 0.41 0.41 0.42 0.45 0.40 0.35 0.32 0.36 0.42 0.46 0.45 0.45 0.44 0.47 0.50 0.52 0.55 0.58 0.60 0.62 0.67 0.68 0.69 0.71 0.72 0.71 0.69 0.70 0.73 0.74 0.73 0.70 0.69 0.70 0.71 0.70 0.69 0.69 0.69 0.69 0.69 0.69 0.68 0.66 0.65 0.65 0.65 0.66 0.66 0.69 0.70 0.70 0.68 0.67 0.67 0.68 0.68 0.67 0.66 0.66
0.32 0.32 0.31 0.29 0.27 0.28 0.26 0.23 0.22 0.28 0.26 0.39 0.43 0.42 0.43 0.47 0.41 0.38 0.22 0.24 0.37 0.42 0.42 0.41 0.40 0.41 0.41 0.43 0.44 0.41 0.36 0.34 0.33 0.37 0.43 0.46 0.47 0.48 0.47 0.46 0.47 0.49 0.51 0.54 0.56 0.58 0.61 0.63 0.64 0.65 0.64 0.63 0.64 0.68 0.69 0.70 0.69 0.67 0.66 0.68 0.71 0.71 0.69 0.68 0.70 0.72 0.74 0.72 0.73 0.73 0.72 0.71 0.68 0.67 0.66 0.66 0.71 0.71 0.70 0.70 0.71 0.70 0.67 0.69 0.67 0.66
0.28 0.28 0.28 0.24 0.26 0.27 0.26 0.26 0.29 0.29 0.39 0.42 0.42 0.44 0.44 0.47 0.42 0.26 0.21 0.32 0.41 0.42 0.44 0.44 0.43 0.43 0.44 0.42 0.44 0.37 0.40 0.40 0.40 0.43 0.45 0.46 0.46 0.46 0.48 0.49 0.49 0.51 0.51 0.51 0.53 0.56 0.56 0.57 0.57 0.57 0.58 0.60 0.62 0.63 0.65 0.66 0.65 0.64 0.65 0.66 0.64 0.64 0.67 0.70 0.71 0.71 0.70 0.70 0.70 0.68 0.68 0.68 0.69 0.68 0.66 0.68 0.70 0.72 0.70 0.70 0.70 0.71 0.68 0.68 0.66 0.67
0.24 0.24 0.24 0.25 0.23 0.23 0.27 0.25 0.28 0.32 0.41 0.45 0.46 0.43 0.46 0.39 0.25 0.26 0.37 0.45 0.43 0.42 0.44 0.45 0.43 0.44 0.44 0.42 0.42 0.42 0.43 0.45 0.45 0.45 0.46 0.46 0.46 0.47 0.47 0.48 0.50 0.51 0.52 0.53 0.52 0.49 0.52 0.54 0.54 0.55 0.55 0.56 0.57 0.57 0.57 0.59 0.60 0.59 0.60 0.59 0.60 0.61 0.64 0.66 0.66 0.65 0.64 0.64 0.64 0.65 0.67 0.69 0.70 0.69 0.68 0.67 0.66 0.66 0.65 0.67 0.67 0.65 0.65 0.64 0.62 0.63
0.25 0.24 0.22 0.21 0.26 0.25 0.24 0.22 0.23 0.22 0.36 0.45 0.44 0.42 0.43 0.32 0.34 0.42 0.43 0.44 0.44 0.43 0.42 0.42 0.42 0.42 0.43 0.42 0.43 0.43 0.44 0.45 0.44 0.45 0.46 0.47 0.47 0.47 0.47 0.47 0.46 0.46 0.47 0.48 0.49 0.49 0.47 0.48 0.50 0.51 0.52 0.56 0.56 0.55 0.54 0.52 0.53 0.55 0.55 0.56 0.62 0.64 0.63 0.64 0.64 0.63 0.62 0.62 0.62 0.62 0.64 0.67 0.69 0.72 0.73 0.72 0.71 0.69 0.68 0.67 0.64 0.61 0.61 0.62 0.60 0.60
0.29 0.21 0.21 0.26 0.29 0.23 0.24 0.21 0.25 0.33 0.39 0.44 0.43 0.35 0.40 0.42 0.45 0.45 0.44 0.43 0.47 0.46 0.45 0.44 0.44 0.45 0.45 0.44 0.43 0.44 0.45 0.45 0.45 0.46 0.46 0.46 0.46 0.47 0.46 0.48 0.50 0.48 0.48 0.48 0.49 0.48 0.46 0.46 0.48 0.47 0.49 0.52 0.53 0.53 0.53 0.53 0.50 0.50 0.51 0.52 0.60 0.61 0.59 0.58 0.60 0.61 0.61 0.60 0.61 0.62 0.63 0.63 0.64 0.66 0.68 0.71 0.70 0.69 0.67 0.66 0.64 0.63 0.62 0.60 0.60 0.60
0.24 0.23 0.27 0.23 0.32 0.27 0.27 0.31 0.39 0.42 0.43 0.45 0.45 0.44 0.45 0.47 0.48 0.48 0.47 0.46 0.45 0.45 0.46 0.43 0.43 0.44 0.45 0.44 0.43 0.43 0.43 0.43 0.43 0.44 0.42 0.44 0.43 0.44 0.43 0.43 0.47 0.48 0.47 0.47 0.48 0.50 0.47 0.45 0.45 0.45 0.45 0.47 0.48 0.50 0.51 0.51 0.49 0.48 0.46 0.49 0.53 0.54 0.54 0.55 0.56 0.57 0.56 0.56 0.56 0.56 0.57 0.59 0.60 0.61 0.63 0.67 0.68 0.66 0.64 0.63 0.65 0.64 0.63 0.61 0.60 0.60
0.26 0.24 0.27 0.25 0.24 0.31 0.35 0.37 0.41 0.41 0.42 0.43 0.47 0.48 0.46 0.46 0.47 0.46 0.45 0.43 0.45 0.45 0.45 0.44 0.45 0.44 0.44 0.44 0.43 0.43 0.43 0.42 0.41 0.41 0.42 0.42 0.43 0.43 0.44 0.44 0.44 0.46 0.46 0.47 0.47 0.48 0.47 0.46 0.45 0.44 0.44 0.46 0.47 0.48 0.49 0.49 0.50 0.47 0.47 0.49 0.50 0.51 0.50 0.49 0.50 0.50 0.51 0.53 0.54 0.54 0.54 0.54 0.55 0.57 0.58 0.60 0.64 0.65 0.64 0.61 0.62 0.61 0.62 0.61 0.59 0.58
0.21 0.23 0.22 0.20 0.30 0.23 0.22 0.33 0.32 0.34 0.37 0.39 0.39 0.42 0.43 0.44 0.43 0.44 0.42 0.42 0.42 0.43 0.43 0.43 0.43 0.43 0.42 0.45 0.44 0.41 0.42 0.45 0.44 0.43 0.43 0.42 0.41 0.41 0.41 0.41 0.43 0.44 0.44 0.43 0.46 0.46 0.46 0.46 0.44 0.42 0.42 0.42 0.44 0.46 0.47 0.47 0.47 0.47 0.47 0.47 0.49 0.50 0.51 0.50 0.49 0.47 0.46 0.45 0.46 0.47 0.49 0.51 0.52 0.53 0.54 0.55 0.56 0.58 0.60 0.61 0.59 0.60 0.60 0.61 0.59 0.57
0.21 0.23 0.19 0.21 0.20 0.19 0.25 0.30 0.33 0.33 0.33 0.34 0.34 0.33 0.33 0.35 0.38 0.39 0.40 0.41 0.42 0.43 0.42 0.41 0.44 0.42 0.41 0.41 0.41 0.38 0.37 0.39 0.40 0.41 0.40 0.41 0.41 0.41 0.41 0.41 0.41 0.42 0.43 0.44 0.43 0.43 0.43 0.42 0.42 0.43 0.43 0.42 0.43 0.44 0.44 0.45 0.46 0.46 0.45 0.45 0.45 0.45 0.45 0.45 0.46 0.46 0.45 0.45 0.45 0.45 0.45 0.45 0.47 0.48 0.49 0.52 0.55 0.56 0.56 0.58 0.59 0.57 0.57 0.63 0.60 0.59
0.24 0.22 0.18 0.22 0.21 0.25 0.28 0.28 0.27 0.29 0.29 0.30 0.32 0.32 0.33 0.34 0.34 0.35 0.36 0.36 0.36 0.36 0.37 0.39 0.36 0.37 0.36 0.37 0.38 0.35 0.34 0.35 0.36 0.36 0.36 0.37 0.38 0.37 0.36 0.37 0.39 0.38 0.38 0.38 0.40 0.40 0.39 0.38 0.38 0.38 0.39 0.40 0.42 0.42 0.41 0.41 0.42 0.43 0.43 0.43 0.43 0.42 0.40 0.40 0.42 0.42 0.41 0.40 0.39 0.38 0.39 0.40 0.41 0.43 0.46 0.49 0.50 0.49 0.49 0.50 0.54 0.59 0.61 0.65 0.71 0.71
0.18 0.15 0.22 0.19 0.18 0.19 0.20 0.24 0.26 0.22 0.23 0.27 0.28 0.30 0.29 0.30 0.32 0.31 0.30 0.33 0.32 0.32 0.32 0.31 0.30 0.33 0.33 0.32 0.34 0.33 0.31 0.31 0.32 0.32 0.30 0.31 0.31 0.32 0.32 0.31 0.32 0.31 0.32 0.32 0.32 0.33 0.33 0.33 0.33 0.33 0.34 0.35 0.37 0.37 0.37 0.37 0.38 0.38 0.38 0.38 0.38 0.38 0.37 0.38 0.38 0.37 0.36 0.36 0.35 0.36 0.36 0.36 0.37 0.38 0.38 0.40 0.43 0.46 0.49 0.53 0.54 0.56 0.55 0.62 0.65 0.68
0.17 0.23 0.20 0.16 0.18 0.20 0.26 0.28 0.29 0.27 0.27 0.29 0.29 0.30 0.30 0.30 0.29 0.29 0.30 0.29 0.28 0.29 0.30 0.29 0.26 0.27 0.27 0.28 0.30 0.27 0.26 0.27 0.27 0.29 0.28 0.27 0.27 0.28 0.28 0.27 0.26 0.27 0.27 0.28 0.28 0.29 0.29 0.30 0.30 0.30 0.30 0.31 0.32 0.33 0.34 0.34 0.35 0.36 0.36 0.36 0.36 0.35 0.33 0.33 0.32 0.32 0.33 0.33 0.33 0.34 0.34 0.35 0.35 0.35 0.35 0.35 0.36 0.37 0.39 0.42 0.51 0.53 0.54 0.57 0.60 0.63
Wind_Speed
15 14 15 15 15 15 16 18 16 13 11 11 12 15 17 15 15 18 15 12 15 16 17 19 19 18 20 21 20 18 18 18 19 19 18 18 19 19 19 17 17 17 17 17 17 16 16 15 14 15 16 16 16 17 17 17 16 15 14 15 15 14 13 13 12 11 11 11 10 10 9 8 7 6 5 4 3 3 2 2 2 2 2 3 3 3
15 15 15 15 15 14 15 16 15 12 12 12 11 12 15 15 14 18 17 12 13 16 16 18 20 19 19 20 19 17 17 17 19 20 19 19 19 19 19 18 17 17 17 17 17 16 17 16 15 16 16 16 16 16 16 15 14 13 14 15 16 15 14 13 12 12 11 11 10 10 9 9 8 6 5 4 3 3 2 2 1 2 2 2 3 3
14 15 16 16 14 12 12 13 13 14 14 14 13 12 14 14 14 15 14 12 13 14 16 17 18 19 19 17 16 16 16 16 18 19 19 19 19 19 19 19 18 17 17 17 17 17 17 17 17 16 16 15 15 14 14 13 12 13 14 16 16 16 15 14 13 12 12 11 11 10 10 9 8 7 6 5 3 3 2 2 2 2 2 2 3 3
13 14 17 16 13 13 14 13 13 14 15 15 15 14 13 14 15 14 13 15 15 14 15 16 16 17 17 16 15 16 16 15 16 17 17 18 18 19 19 18 17 18 18 18 17 17 18 18 17 15 13 13 13 12 12 12 12 14 15 16 16 16 16 15 14 13 12 12 11 10 10 10 9 8 7 5 4 3 2 2 2 2 2 2 3 3
13 11 14 15 13 14 15 14 14 14 14 16 16 16 14 14 16 13 11 13 14 15 16 15 14 16 16 16 17 16 15 15 15 16 17 17 18 18 18 18 18 18 18 18 17 17 16 15 14 13 12 11 11 12 12 12 14 15 16 16 15 15 16 15 15 14 13 12 11 11 11 10 9 8 7 5 4 4 3 3 3 2 2 2 2 3
15 11 11 13 13 14 15 14 15 15 14 15 17 18 15 13 14 13 11 11 12 13 16 17 15 14 15 17 18 16 16 17 16 16 16 16 17 17 17 18 18 18 18 17 15 14 13 11 10 10 11 11 10 11 11 12 13 13 15 15 15 15 15 15 15 14 13 13 12 12 11 10 9 8 7 6 5 5 4 4 4 3 3 3 3 3
15 12 12 15 15 15 15 14 15 15 15 14 15 18 18 13 13 13 13 13 12 10 12 16 15 12 13 16 17 17 17 17 16 15 16 17 17 17 17 18 18 18 17 15 14 13 12 10 9 9 10 11 10 10 10 12 12 12 13 14 14 15 14 14 15 14 13 13 13 12 12 11 10 9 8 6 6 5 5 4 4 4 3 3 3 3
16 13 12 14 15 14 14 14 14 16 15 12 11 16 18 15 13 13 14 13 12 10 9 13 15 12 12 14 16 16 16 16 15 15 16 18 18 16 16 17 18 17 16 14 13 13 12 11 10 9 9 9 9 9 10 11 12 12 13 14 14 15 14 14 15 14 13 13 13 13 13 11 10 9 8 7 6 6 5 5 5 4 4 3 3 3
16 17 15 15 15 13 13 13 13 15 15 11 10 13 16 16 14 14 15 14 12 12 11 13 15 13 11 13 15 15 16 15 15 15 16 17 17 15 15 17 16 14 13 13 13 13 12 11 11 10 9 9 9 9 9 9 10 11 13 15 15 15 15 15 15 14 14 13 12 13 13 11 9 9 8 7 6 6 6 6 5 5 5 4 3 3
12 16 16 16 15 13 13 14 14 15 15 11 11 13 13 14 14 13 14 14 13 13 12 13 15 14 10 12 14 15 17 16 14 15 15 16 16 15 16 17 14 12 12 13 13 12 12 12 12 10 9 9 9 8 9 9 9 9 11 14 15 15 15 15 15 15 14 14 13 13 13 11 10 9 8 7 7 7 6 6 6 5 5 4 4 3
11 13 15 16 16 13 11 12 12 15 14 10 11 13 12 12 13 13 13 13 13 13 14 14 15 14 12 12 14 14 15 15 14 13 14 15 15 15 16 16 14 12 12 12 12 12 12 12 12 11 10 9 9 9 9 10 10 9 10 13 14 14 15 15 15 15 15 14 13 14 13 11 10 9 9 8 8 7 7 6 6 6 5 4 4 4
14 14 15 17 17 13 11 12 13 15 15 12 12 13 12 12 12 13 13 13 13 12 13 14 14 14 13 11 11 10 11 13 13 13 12 12 13 14 16 17 15 13 13 13 12 11 12 12 12 11 11 10 10 11 10 11 12 11 11 13 13 14 15 16 16 16 15 15 14 15 14 12 11 10 9 9 9 8 7 7 7 6 6 5 4 4
16 16 16 17 17 16 14 13 14 15 15 14 13 13 13 12 11 12 12 13 13 12 11 13 13 14 13 10 10 9 10 11 12 12 12 12 13 14 15 15 15 13 13 13 12 12 12 13 12 12 12 11 12 12 12 11 12 13 13 14 14 15 15 16 16 16 16 15 15 16 15 14 12 11 10 10 9 9 8 8 7 6 6 5 5 4
17 17 18 18 17 17 16 14 14 14 15 15 15 15 14 12 11 12 12 12 13 12 11 11 11 13 13 11 12 12 11 12 12 11 12 12 13 13 12 13 13 13 13 12 13 12 13 13 13 13 13 13 13 14 13 12 12 13 14 15 16 15 15 16 17 17 16 16 16 16 15 14 13 12 11 11 10 10 9 8 7 7 7 6 5 5
17 17 19 19 16 17 19 17 14 14 15 16 16 15 15 13 12 11 11 11 11 11 12 12 11 13 13 12 12 12 12 13 12 11 12 12 12 11 11 11 11 12 12 12 13 13 13 14 14 14 14 13 13 14 14 13 13 13 13 15 16 16 17 17 17 18 17 16 16 16 15 15 14 13 12 11 11 10 10 9 8 8 7 7 6 6
18 16 17 21 18 17 19 19 16 15 15 16 16 16 15 14 13 11 9 9 9 9 11 12 12 12 11 12 13 12 12 13 12 12 12 12 12 12 11 11 11 11 12 12 13 13 13 14 14 15 15 15 14 14 14 15 14 14 14 14 15 17 17 17 18 19 18 17 16 16 16 15 15 15 13 12 11 11 10 10 9 8 8 8 7 7
17 14 14 19 20 18 18 19 18 17 14 14 16 17 15 13 14 12 10 10 10 11 11 12 13 12 11 13 15 14 13 13 13 13 13 12 13 13 12 12 12 12 12 13 13 13 14 14 14 14 16 16 15 15 15 16 16 16 15 15 16 17 17 17 18 19 19 18 17 17 17 16 16 16 15 13 12 12 12 11 10 9 9 8 8 8
15 14 13 17 20 19 18 18 19 19 16 13 15 16 14 13 13 13 11 11 12 14 13 12 14 13 12 13 14 15 15 14 13 13 13 13 13 13 12 12 12 12 12 12 12 12 13 14 14 14 15 17 16 15 15 16 16 16 16 16 17 17 18 18 18 19 19 18 18 18 18 18 17 16 16 14 13 13 13 12 11 10 10 10 9 9
15 15 14 17 19 19 18 18 18 19 19 17 14 13 14 14 14 14 13 12 13 13 13 14 14 14 14 13 13 15 15 14 14 14 14 14 13 12 12 12 12 12 12 11 12 12 12 13 14 14 15 16 16 16 16 17 17 16 16 18 18 18 18 19 19 20 20 20 20 19 19 19 18 18 17 16 15 14 14 13 12 12 11 11 10 10
15 15 14 15 17 17 18 19 19 18 19 20 17 14 15 14 13 14 14 14 14 13 13 13 14 13 12 11 13 15 14 13 13 14 14 14 14 13 12 12 12 12 12 11 11 11 11 11 12 12 13 15 15 16 16 17 17 17 17 18 19 19 19 20 21 21 22 23 22 22 21 20 20 19 18 17 16 15 15 14 14 13 13 12 12 11
16 16 15 14 15 17 17 19 20 19 18 20 19 17 17 15 14 14 13 13 13 13 12 13 13 10 8 9 12 13 12 12 11 12 12 12 13 12 11 11 11 11 11 10 10 11 10 11 11 11 12 13 14 14 15 15 16 17 18 18 19 19 19 21 22 23 24 25 25 25 23 21 21 20 19 18 17 16 16 16 15 14 14 14 13 13
16 17 17 16 15 17 17 17 20 20 18 18 19 19 18 17 15 15 15 14 14 14 12 12 11 9 8 9 10 12 12 12 11 11 10 10 10 10 10 10 10 10 10 9 9 9 9 9 10 10 11 12 12 13 13 13 14 15 17 18 18 18 19 19 20 21 22 24 26 26 25 22 21 21 20 19 18 17 17 16 16 16 15 15 15 14
16 16 17 18 18 17 16 15 16 18 18 17 17 18 18 18 17 17 15 15 15 15 14 14 13 10 10 10 10 12 13 12 12 12 11 10 10 10 10 10 10 9 9 9 8 8 7 8 8 9 10 10 10 11 11 12 12 13 14 15 16 16 16 16 16 16 17 19 22 24 24 23 22 22 21 20 19 18 18 18 17 17 17 16 16 15
16 16 17 18 18 17 17 16 16 18 18 19 18 16 17 17 17 17 15 14 15 15 15 15 14 12 11 11 11 12 12 11 12 12 12 11 10 10 10 10 9 9 8 8 8 7 7 7 7 8 8 8 8 9 9 9 10 10 11 12 13 14 14 14 14 15 15 17 19 20 21 22 22 22 21 21 19 19 19 19 18 18 18 17 17 16
16 16 17 17 16 17 18 17 17 18 19 20 19 18 18 18 18 17 15 14 15 15 15 14 13 11 12 13 12 13 12 11 13 14 13 12 11 11 10 10 9 8 8 8 8 7 7 7 8 8 8 8 8 8 8 8 8 9 10 11 11 12 12 12 13 14 15 15 17 18 19 20 20 21 21 21 20 19 19 19 19 19 18 18 17 17
17 17 18 18 17 16 15 14 13 15 17 19 20 18 18 20 20 18 17 16 16 17 16 14 12 11 11 12 13 13 13 13 13 14 13 12 11 11 11 10 9 9 8 8 8 8 8 8 8 8 8 9 9 8 8 8 9 9 9 10 10 11 11 12 12 13 14 14 15 16 17 18 19 20 20 20 20 19 19 20 20 20 19 18 18 17
16 16 18 21 20 17 14 13 11 11 13 17 20 20 17 18 19 18 17 17 17 17 16 12 11 12 10 10 11 12 12 13 12 12 11 11 11 11 11 10 10 9 9 9 8 8 8 8 8 8 9 9 9 9 9 9 9 9 9 10 10 10 11 11 11 13 14 15 15 16 17 18 19 20 20 20 19 19 19 19 19 20 19 19 19 18
14 16 17 20 21 20 18 16 14 12 12 12 14 15 15 15 16 16 16 16 15 16 14 10 11 12 11 11 11 10 11 12 11 11 11 11 11 11 11 11 11 10 10 9 9 9 8 8 8 8 8 9 9 9 9 9 10 10 10 9 9 9 10 10 11 12 13 14 14 15 16 17 18 18 18 18 18 18 18 18 18 19 19 19 19 19
15 16 16 18 20 21 21 20 19 16 15 13 12 11 11 11 12 13 13 13 12 13 12 10 11 10 10 11 11 10 10 11 10 10 11 12 12 12 12 12 12 11 11 10 10 9 9 8 9 9 9 9 9 9 9 9 10 10 10 10 9 10 10 11 11 12 13 13 14 14 15 16 16 16 16 16 17 17 18 18 19 19 19 20 20 20
15 14 15 16 18 19 20 22 22 21 19 18 18 16 13 11 11 11 11 11 11 11 11 11 11 9 9 10 11 11 11 10 10 12 12 12 12 12 13 13 13 13 12 12 11 10 10 9 9 9 9 10 10 10 10 10 11 11 11 11 11 11 11 11 11 12 13 14 14 14 15 15 15 15 14 14 15 16 17 18 18 19 19 19 20 20
15 13 13 14 15 16 17 18 21 22 22 21 21 20 18 16 15 14 13 12 12 11 11 12 12 10 10 10 11 11 11 10 10 11 11 11 11 11 11 12 13 13 13 12 11 11 11 10 10 10 10 10 11 11 11 11 12 12 12 12 12 11 11 12 12 12 12 13 14 14 14 15 15 15 15 15 16 16 17 18 18 18 18 19 19 20
16 14 13 14 14 14 14 15 16 18 20 21 23 23 22 20 18 16 15 14 14 13 13 14 13 12 12 11 10 11 11 10 10 10 10 10 10 10 10 10 11 11 12 12 12 12 12 11 11 11 11 11 12 12 12 12 12 12 12 13 12 12 12 12 12 12 12 13 13 14 14 15 15 16 16 17 17 18 18 18 19 19 19 19 19 20
16 15 15 15 14 13 14 14 13 13 16 19 21 22 22 22 20 19 17 16 16 16 15 15 14 13 13 13 12 12 12 11 11 11 11 11 10 10 10 11 10 9 10 11 12 12 12 12 13 13 13 13 13 13 13 13 13 13 13 14 14 13 14 13 13 13 14 14 15 15 15 16 16 17 17 18 19 19 19 19 19 19 19 19 19 20
17 17 16 15 14 13 14 14 13 14 15 14 13 15 18 19 18 18 17 16 16 17 16 16 15 15 15 15 14 13 13 12 12 12 12 12 12 12 12 12 12 12 11 12 12 12 12 12 14 14 14 14 14 14 14 14 14 14 14 14 14 15 15 15 15 15 15 16 16 16 17 17 18 18 18 18 19 19 20 20 19 20 20 20 21 21
18 18 16 15 15 13 13 15 14 15 14 12 10 11 13 14 15 14 13 13 14 15 16 15 15 15 15 15 14 13 13 13 13 12 12 13 14 14 14 14 13 13 13 13 14 14 13 13 14 14 14 14 15 15 15 15 15 15 15 15 15 15 15 15 16 16 16 17 17 18 18 18 19 19 19 19 19 19 20 20 20 20 21 21 21 21
17 18 16 16 15 13 13 16 15 13 12 11 11 12 12 13 14 13 12 12 12 13 13 14 14 14 13 13 13 13 13 12 12 12 13 13 14 15 15 14 14 14 14 15 15 15 15 15 15 15 14 14 15 15 15 15 15 16 16 15 15 15 15 16 16 17 17 17 18 18 19 19 19 19 19 19 20 20 20 20 20 20 21 21 20 20
15 16 16 16 16 15 14 15 13 12 12 12 12 13 13 13 13 13 12 12 12 12 12 13 13 13 13 14 14 14 13 12 13 13 13 14 15 15 15 15 15 15 15 15 16 16 16 17 17 17 17 17 16 16 15 15 15 16 16 16 16 16 16 17 17 17 17 17 18 18 18 19 19 19 20 20 20 20 20 20 20 20 21 21 21 21
15 15 15 15 16 16 16 15 14 14 14 13 12 13 13 13 13 14 13 12 12 13 13 13 13 14 14 14 15 15 15 14 14 15 14 14 15 15 16 16 16 17 17 17 17 17 18 18 18 18 18 17 17 16 16 16 15 15 16 16 16 17 17 17 17 17 17 17 18 18 18 18 18 18 19 19 20 20 20 20 21 21 21 21 22 22
17 17 16 16 16 16 17 18 16 14 13 12 12 13 14 15 15 16 16 15 14 15 15 15 15 15 15 15 15 16 17 17 16 16 15 14 15 15 16 16 17 17 18 18 18 18 18 19 18 17 17 17 17 17 17 17 17 16 17 17 17 18 17 17 18 18 18 18 18 19 19 19 19 19 19 20 20 20 21 21 21 21 22 22 22 22
17 18 18 18 18 18 18 18 15 13 12 13 13 13 14 15 16 17 18 17 16 16 16 16 16 16 16 17 17 17 17 18 17 16 16 15 15 16 16 17 18 18 18 18 19 19 19 19 19 19 18 18 18 19 19 19 19 19 19 19 19 19 18 18 18 19 19 19 19 19 20 20 20 20 21 21 21 21 22 22 22 22 22 22 22 22
14 16 17 19 19 19 19 17 14 12 13 14 14 14 15 16 17 17 16 16 16 15 15 15 16 16 16 17 17 17 16 17 17 17 16 16 17 18 18 18 19 19 19 19 20 21 21 21 21 21 21 21 21 21 22 22 23 23 23 23 22 22 23 23 22 22 21 21 21 21 21 22 22 22 22 22 23 23 23 24 24 23 23 23 23 24
12 13 16 17 18 18 18 18 15 13 14 15 15 15 15 15 16 16 15 15 15 15 14 14 15 15 16 16 16 17 17 17 17 17 17 18 19 20 20 20 21 21 21 21 21 22 22 23 23 23 23 23 23 24 24 25 25 25 26 26 25 25 26 27 27 26 25 25 25 25 25 25 25 25 25 25 26 26 26 27 27 27 27 27 27 27
12 13 14 13 14 16 17 18 15 13 14 15 15 14 14 14 15 15 15 15 15 14 15 15 15 15 16 16 16 17 18 19 19 19 19 20 21 21 22 22 22 22 22 23 23 23 24 24 24 24 25 25 25 25 26 26 27 27 27 27 27 27 27 28 28 28 28 28 28 29 29 29 29 28 28 28 29 29 29 29 29 29 29 29 29 29
12 13 13 11 12 15 15 15 15 14 13 14 14 14 14 13 14 15 15 15 15 16 16 16 17 17 17 18 18 19 19 20 21 21 22 22 22 23 23 23 24 24 24 24 25 25 26 26 26 27 27 27 27 27 27 28 28 28 29 29 29 29 29 29 29 29 29 29 30 30 30 31 31 31 31 31 31 31 31 31 30 30 30 30 30 30
13 13 13 12 12 12 12 12 13 14 13 13 13 14 15 14 14 15 16 16 17 17 17 17 18 18 19 19 20 20 20 21 21 22 23 23 24 24 24 25 25 25 26 26 26 27 28 28 29 29 29 29 29 29 29 29 29 30 31 31 30 31 31 31 31 31 31 31 31 31 31 32 32 33 33 33 33 33 33 33 32 32 31 31 32 32
12 13 14 13 12 11 11 12 13 13 12 13 13 14 15 15 16 16 16 17 17 18 18 19 19 19 19 20 20 20 21 22 22 23 23 24 24 25 25 26 26 27 27 27 27 28 29 29 30 30 31 31 31 31 31 31 32 32 33 33 32 33 33 33 33 33 33 33 33 33 33 33 33 33 33 33 34 34 34 34 34 33 33 33 33 33
10 12 12 12 13 13 13 13 13 13 13 14 14 14 14 15 15 16 16 17 17 18 18 19 19 19 20 20 21 21 22 22 23 24 24 25 25 25 26 26 26 27 27 28 29 29 30 30 31 32 32 33 33 33 33 34 34 34 34 34 34 34 34 34 34 35 35 35 35 35 35 35 35 35 34 34 35 35 35 35 35 35 34 34 33 33
8 10 11 11 11 12 12 12 12 13 13 13 14 14 15 15 15 16 16 16 17 18 18 19 19 20 20 20 21 22 23 23 24 24 25 25 26 26 27 27 28 28 29 29 30 31 31 32 33 33 34 34 34 35 35 35 35 35 35 35 35 35 35 36 36 36 36 36 36 36 36 36 36 36 36 36 36 36 36 36 36 36 35 34 34 34
7 8 9 9 9 9 10 11 11 11 12 12 13 13 14 14 15 15 16 17 17 18 18 19 20 20 21 21 22 22 23 24 24 25 25 26 26 27 28 29 30 30 30 31 32 32 33 33 34 34 35 35 36 36 36 36 36 36 36 36 37 37 37 37 37 37 38 38 38 38 38 38 38 38 38 38 38 38 39 38 38 37 37 36 35 34
7 7 7 8 9 9 9 10 10 10 11 11 11 11 12 13 13 15 15 16 17 17 18 19 20 21 21 22 23 23 24 24 25 26 26 26 27 27 28 29 30 30 31 31 32 33 33 34 34 35 35 36 36 36 37 37 37 37 37 38 38 39 39 40 40 40 40 40 40 40 40 40 40 41 41 41 41 41 41 41 40 39 39 39 38 37
7 6 6 7 7 7 7 8 8 8 9 9 9 10 10 11 12 13 14 14 15 16 17 18 19 20 21 21 22 22 23 24 24 25 26 26 27 28 28 29 30 30 30 31 31 32 33 33 34 35 35 36 36 36 36 37 38 38 38 38 39 39 40 41 41 41 41 41 41 42 42 42 42 42 42 42 42 43 43 43 42 41 41 41 41 40
Wind_Direction
215 219 220 221 222 221 220 221 225 239 247 241 231 221 222 225 219 219 217 212 220 224 224 227 231 231 231 235 232 229 233 234 232 228 225 227 230 231 231 229 228 226 225 224 224 228 230 232 236 239 239 237 236 237 241 240 231 225 221 213 208 207 208 209 209 208 206 205 203 203 209 213 212 211 208 204 206 212 217 230 245 255 258 258 258 260
218 223 222 221 225 224 220 222 228 238 238 233 233 225 222 225 220 216 216 216 222 227 230 229 232 233 232 234 228 225 232 233 230 227 225 227 228 230 230 228 224 222 221 220 222 226 230 234 237 239 240 237 236 239 241 237 226 219 214 208 206 206 207 210 210 206 204 204 201 201 207 207 203 196 191 190 191 195 201 213 234 256 263 263 265 267
220 226 225 222 224 223 220 224 228 230 229 227 229 229 225 222 218 213 216 226 226 226 233 232 231 234 232 228 222 223 231 231 226 225 225 225 226 228 228 225 222 219 217 218 221 227 232 235 236 238 241 239 240 243 239 231 223 215 211 207 204 203 206 209 208 205 202 201 199 200 203 198 190 186 184 186 187 192 206 218 240 259 269 280 283 283
222 226 224 222 221 220 222 227 229 228 227 226 225 226 225 220 217 217 223 230 229 228 234 235 234 233 228 224 224 226 228 226 221 221 223 224 225 226 224 221 218 216 216 217 222 229 233 235 235 238 243 243 244 246 243 235 226 219 214 209 204 204 207 208 208 206 203 201 200 201 199 192 187 186 187 191 197 208 218 228 247 258 269 285 290 293
228 223 216 217 217 220 225 226 225 226 224 224 225 225 224 222 223 226 227 226 226 229 234 238 237 229 221 222 225 224 225 222 219 219 221 221 222 222 220 218 216 214 216 218 224 229 231 235 237 241 247 252 250 247 244 237 228 221 213 206 204 206 207 208 208 207 204 202 200 199 198 194 190 190 196 205 214 225 233 241 249 254 263 275 286 296
230 220 212 218 221 221 224 223 221 222 223 223 224 225 228 229 227 225 219 219 227 229 226 228 233 226 219 222 221 219 222 221 219 220 220 220 220 219 218 217 214 214 215 217 222 225 229 234 240 245 248 251 249 243 237 231 226 217 205 202 205 207 206 205 205 206 204 202 201 199 198 198 199 202 213 222 225 232 237 244 250 255 261 265 272 283
225 220 221 225 224 221 223 224 220 218 222 225 220 220 228 233 227 222 217 219 229 233 223 222 229 226 218 220 215 212 218 219 218 220 221 220 220 218 218 217 215 213 214 219 222 224 230 235 243 250 244 241 239 235 231 227 223 212 203 201 201 201 201 201 202 203 203 203 204 202 201 204 207 212 221 228 233 239 241 243 248 254 260 263 264 269
222 223 223 219 219 219 220 222 217 213 219 228 217 212 221 228 226 225 225 226 230 236 231 223 224 223 221 219 209 207 215 215 215 220 222 220 217 217 219 219 215 211 211 218 222 225 231 235 240 243 236 232 229 226 227 225 221 216 208 202 197 198 201 200 199 200 202 205 207 206 206 210 212 214 218 225 234 240 242 242 245 251 256 259 261 264
221 224 221 215 217 218 219 221 215 211 217 226 220 212 217 224 225 226 229 232 232 235 234 223 218 222 227 216 204 207 216 215 215 218 218 217 216 217 218 216 213 209 210 217 221 225 228 231 234 233 229 225 220 221 223 218 213 210 204 201 202 204 205 204 203 203 206 211 213 212 211 212 213 214 217 224 232 235 236 238 242 247 250 252 254 260
221 223 219 214 214 216 221 222 213 209 214 218 221 218 217 222 226 227 229 231 232 235 235 223 216 220 224 212 208 217 220 217 219 218 213 212 214 214 217 217 213 210 213 218 220 223 226 228 231 231 227 222 218 216 212 207 205 202 203 206 209 211 212 210 209 210 212 214 216 215 213 213 214 215 219 225 229 232 234 236 240 244 246 245 246 252
226 223 219 214 214 220 225 221 211 209 213 215 219 219 217 221 225 227 229 231 232 233 232 224 219 223 225 219 220 223 218 212 212 211 205 206 210 213 219 222 218 213 216 218 218 219 222 227 230 230 226 221 221 217 210 211 215 214 213 212 212 212 213 212 211 213 214 213 212 211 211 213 214 215 220 224 226 230 234 236 240 241 239 238 241 246
228 225 221 217 219 226 227 221 216 215 218 220 220 219 217 219 222 225 227 227 231 233 230 224 219 223 228 221 215 215 210 206 205 204 203 208 217 219 221 223 220 215 215 217 219 219 222 228 231 232 229 223 223 222 220 222 224 221 215 211 209 209 211 213 213 214 214 213 213 212 213 217 219 221 221 222 225 229 233 235 236 235 231 232 238 244
227 224 219 218 221 224 224 220 215 216 219 219 219 219 218 218 219 224 226 225 229 233 230 223 217 222 227 215 207 210 207 206 207 207 209 214 219 220 220 221 219 218 218 219 222 223 226 230 232 234 233 229 226 225 224 226 227 224 218 213 212 211 213 216 214 214 214 215 217 218 219 222 224 224 221 221 226 229 232 233 231 228 226 228 235 241
224 224 219 217 218 218 221 220 213 212 215 216 217 218 219 219 219 223 225 226 230 227 221 220 220 225 226 212 204 207 206 209 212 210 210 210 211 215 218 218 218 222 224 225 226 228 231 233 235 236 235 234 232 228 226 229 229 228 223 219 218 216 217 218 216 216 216 218 221 220 220 223 224 222 221 223 227 230 232 231 226 224 224 228 234 236
222 224 219 217 217 214 217 222 220 215 214 217 219 221 224 225 224 228 229 229 231 224 214 215 223 229 227 216 212 213 212 215 216 212 211 214 216 219 221 223 223 224 228 230 230 231 233 234 236 238 238 237 235 231 231 234 232 230 228 224 222 219 219 221 219 216 216 219 222 220 220 222 222 220 222 225 228 230 231 227 224 224 226 231 234 232
226 228 220 217 219 216 216 221 225 223 219 218 220 224 227 228 231 236 235 231 232 230 220 217 226 233 226 218 219 221 220 219 219 216 216 219 222 223 225 228 231 230 232 234 233 233 235 236 238 239 239 238 236 234 235 236 234 232 232 228 223 220 220 222 221 218 219 223 224 221 221 223 223 222 224 226 228 228 228 227 226 227 229 232 233 228
226 230 220 214 217 219 218 219 222 224 223 220 222 226 228 231 237 241 235 226 229 237 232 225 230 230 225 225 222 220 224 223 220 220 221 224 226 227 229 231 234 235 235 236 236 237 239 240 240 239 238 237 237 237 236 236 235 235 234 231 226 222 222 224 224 222 223 225 226 225 224 225 225 224 226 227 227 226 226 228 230 229 229 229 227 222
225 229 221 213 216 220 221 224 225 225 225 223 224 228 229 231 236 240 237 227 228 236 237 234 233 230 233 233 220 217 223 222 220 221 224 227 227 229 231 230 231 234 234 235 237 240 241 242 242 240 239 238 238 239 235 233 234 236 235 233 230 228 226 227 226 225 227 227 227 228 226 226 226 225 227 228 227 227 227 229 229 227 226 225 222 217
224 230 225 219 221 220 219 225 228 225 225 228 230 229 227 230 231 231 236 234 232 237 238 236 235 237 243 234 215 219 224 219 221 224 222 225 227 229 230 227 228 231 234 236 237 240 242 242 242 240 239 237 238 238 235 232 233 236 237 235 234 235 233 231 230 231 233 232 230 229 228 228 227 226 228 228 228 229 229 227 226 224 224 223 219 216
226 230 227 220 224 221 217 223 226 224 223 227 234 233 227 232 234 232 233 235 235 237 236 236 235 238 243 230 219 227 224 217 223 224 219 222 226 227 226 224 225 227 232 236 238 239 240 239 239 238 235 234 235 237 236 235 234 236 238 236 234 236 237 235 235 237 236 234 233 231 229 230 229 226 227 227 228 230 228 226 226 225 223 220 218 217
226 228 227 223 225 224 221 222 224 225 223 224 229 231 228 230 233 234 235 237 239 238 234 235 234 232 238 233 223 221 217 217 221 217 214 216 217 219 221 222 224 226 229 235 238 239 239 238 237 236 234 233 234 235 235 236 235 235 237 236 233 235 238 238 239 240 238 236 235 232 230 231 229 225 226 228 230 229 227 226 227 225 222 220 219 220
225 226 229 228 227 227 227 226 225 227 229 226 225 228 230 230 230 234 235 235 238 239 237 238 234 228 238 239 222 212 217 221 217 212 211 209 209 216 221 221 222 222 225 230 233 234 234 233 231 231 232 232 232 234 234 234 234 234 236 235 234 237 239 241 241 241 238 235 232 231 231 230 226 223 226 229 230 228 226 226 226 225 223 222 222 223
226 228 231 230 229 230 231 230 228 228 231 231 230 230 230 230 232 236 238 236 237 240 242 243 240 233 236 237 226 220 223 222 217 214 215 215 216 220 219 217 216 215 217 219 221 224 225 224 225 227 230 230 231 234 233 233 234 235 234 234 236 237 238 239 240 238 233 228 226 228 228 226 221 221 225 228 228 227 227 227 226 225 226 226 225 227
225 226 232 233 233 235 236 234 233 231 230 231 233 232 231 231 232 236 240 240 240 242 241 240 239 234 230 232 229 221 216 218 221 217 213 213 212 211 208 205 205 207 210 211 213 218 221 223 225 226 226 226 228 228 229 231 233 232 231 231 232 233 233 234 234 231 228 224 223 223 222 219 219 221 225 227 229 229 229 228 227 227 228 229 229 230
225 226 231 233 233 233 232 231 229 228 228 230 232 233 234 235 235 237 239 237 238 241 241 239 238 234 230 228 224 220 215 216 216 207 201 201 200 202 205 201 202 207 209 210 212 215 218 223 226 225 224 224 224 224 226 230 230 228 227 227 227 227 228 229 229 228 226 222 220 219 217 217 220 222 225 227 229 230 229 229 229 229 230 231 231 232
228 229 230 233 234 231 228 226 228 231 230 229 230 233 235 235 237 240 239 237 239 240 243 246 240 233 232 226 218 215 212 208 205 201 201 206 206 208 211 209 210 214 214 213 214 214 218 225 229 229 231 232 233 233 233 233 230 225 223 222 222 222 224 225 226 225 224 220 216 214 213 215 218 222 224 226 228 229 230 231 232 232 234 234 233 234
229 229 230 232 233 232 232 234 243 250 242 229 227 230 233 234 236 239 239 240 242 240 241 245 232 221 221 218 213 211 209 209 210 210 211 216 217 215 215 216 217 218 218 217 217 219 221 225 229 232 235 238 239 239 236 232 227 221 220 222 221 219 222 225 225 224 224 223 221 220 220 221 222 222 224 226 229 231 233 234 235 235 235 235 235 236
230 232 231 231 231 230 234 239 248 256 250 236 227 225 227 231 232 233 235 241 245 240 237 235 224 216 211 211 213 210 210 215 219 220 221 221 219 217 216 218 218 218 220 220 220 222 224 227 232 235 237 241 243 240 236 230 224 221 225 228 226 223 225 226 225 225 227 226 225 226 226 225 225 223 223 227 232 235 235 235 236 236 235 236 236 237
236 236 231 233 233 232 233 236 243 249 246 241 232 225 227 232 229 225 231 240 240 235 232 225 219 219 215 214 217 215 214 218 220 225 228 223 219 219 220 222 221 220 222 223 223 226 229 232 235 237 238 240 243 242 240 237 234 232 233 232 230 232 232 230 227 227 229 228 226 228 227 226 226 227 228 232 235 236 236 235 235 235 235 235 236 237
237 235 231 233 235 234 234 233 236 241 244 243 239 237 239 239 233 232 237 242 235 226 222 212 208 217 223 220 220 220 221 221 222 227 229 227 227 228 226 225 225 226 226 224 223 226 230 232 234 239 243 243 245 246 247 246 243 241 240 237 236 237 236 234 234 233 232 231 230 231 231 233 235 236 236 237 237 237 237 237 236 235 234 235 235 237
235 236 232 231 233 234 233 231 231 234 240 244 243 243 244 243 243 243 241 240 235 226 220 214 210 217 225 222 218 220 222 221 225 232 238 240 242 243 242 236 229 227 227 226 226 228 229 231 235 241 245 246 248 250 250 250 246 244 244 242 240 239 237 237 237 235 236 238 238 239 240 242 243 242 242 242 242 243 242 240 239 236 236 237 237 239
233 234 230 229 232 231 226 225 226 228 236 243 244 244 244 243 243 242 236 236 237 234 233 231 223 219 223 225 223 223 223 225 230 236 241 245 248 252 259 253 236 228 228 229 232 233 232 233 238 242 246 248 248 249 251 251 250 247 245 243 243 241 238 236 235 235 239 241 242 244 246 246 246 245 245 244 245 246 245 243 241 239 240 241 240 242
232 233 230 230 235 233 224 220 220 224 235 243 243 241 239 238 239 238 236 237 239 239 239 236 227 222 226 230 230 230 233 237 240 242 243 246 249 253 260 259 250 244 241 237 237 238 239 242 243 243 246 248 248 249 251 253 252 248 246 246 245 242 239 238 238 240 243 244 244 245 247 248 247 247 246 245 246 248 248 246 245 244 244 246 246 247
232 233 232 234 238 234 223 220 226 230 234 241 241 235 231 231 232 235 236 237 239 238 235 232 229 229 232 232 232 233 236 239 241 244 247 246 245 247 251 254 255 254 252 250 249 249 251 252 251 248 247 247 247 248 250 252 251 250 249 249 248 244 244 245 245 245 245 246 247 248 249 249 249 249 248 247 247 248 249 249 249 249 250 251 252 252
232 232 234 237 239 234 224 224 234 237 235 238 237 230 226 223 220 221 224 228 231 230 227 227 229 230 231 230 230 231 232 234 238 242 244 242 240 241 245 249 251 251 252 253 253 254 257 259 260 257 253 252 251 250 250 251 249 248 248 248 248 246 246 246 247 248 249 250 250 251 252 251 250 250 249 249 249 249 250 250 251 251 252 253 253 252
234 233 236 237 235 233 229 228 233 237 232 229 227 226 225 220 214 214 217 221 224 223 220 222 223 225 225 225 227 228 229 232 236 238 239 240 240 242 245 250 252 252 253 253 253 253 255 258 258 258 256 256 256 255 257 256 252 248 246 246 248 249 250 250 251 252 253 253 253 252 252 252 251 249 249 249 250 250 251 251 251 251 251 251 251 251
237 234 237 237 233 233 234 231 231 233 230 225 224 226 228 225 223 226 225 223 228 228 223 222 223 224 225 226 226 228 229 234 241 242 241 241 241 242 245 247 249 250 251 252 254 254 256 258 259 258 257 256 255 255 256 257 254 251 249 249 250 251 252 252 253 252 253 253 254 253 253 252 251 250 249 249 249 250 251 251 250 251 251 250 250 250
238 237 242 243 239 237 239 236 234 234 232 229 227 230 232 233 235 236 230 227 233 234 228 227 228 228 230 231 231 233 236 243 246 245 243 242 243 244 244 244 246 248 249 249 251 253 255 257 257 256 255 253 252 251 250 250 251 250 250 252 252 251 250 251 252 252 252 253 253 254 254 253 252 252 252 251 251 250 249 249 250 251 251 250 250 250
238 240 243 245 244 243 243 242 241 240 239 237 235 236 237 237 239 240 236 234 237 238 236 234 233 233 235 237 239 243 247 248 246 245 244 245 247 247 247 246 247 249 250 251 252 252 252 253 253 254 255 255 253 252 251 250 250 250 252 254 254 252 252 252 252 251 251 253 254 254 255 255 254 255 255 255 253 251 250 250 252 253 253 253 252 252
238 238 239 241 243 244 243 245 245 242 241 243 245 245 243 240 239 239 238 235 235 238 240 239 238 241 244 245 246 251 251 246 243 244 245 246 248 250 251 251 251 252 254 257 258 257 255 255 256 257 258 259 258 257 256 254 253 252 253 255 257 256 255 255 255 254 253 255 255 253 253 255 255 255 256 255 253 251 252 253 254 255 255 255 255 254
240 240 239 240 242 243 242 244 243 237 241 250 250 247 246 243 239 237 237 236 235 236 238 240 242 246 247 247 248 250 248 243 242 244 245 246 250 252 253 254 254 255 256 258 261 261 258 258 260 260 261 261 261 260 259 258 257 256 256 257 259 259 258 258 259 258 257 257 255 253 253 255 255 255 256 256 255 253 253 254 256 256 257 257 258 257
247 247 244 242 243 244 242 242 240 238 245 254 252 247 246 244 239 236 237 237 237 237 239 241 243 244 244 245 246 246 243 242 244 245 247 249 252 254 256 257 257 258 259 259 261 262 261 260 261 261 261 262 262 262 261 260 260 260 260 260 260 259 258 259 259 259 258 258 257 257 257 258 258 258 258 258 258 256 256 257 258 258 258 259 259 259
252 252 249 246 247 247 245 243 242 242 246 251 250 245 244 242 238 235 236 240 242 242 243 245 247 248 247 247 247 246 245 245 247 249 251 254 256 257 259 260 261 262 262 262 263 264 264 263 262 262 262 262 262 262 262 262 261 262 261 261 262 261 260 259 259 259 259 259 259 259 259 259 260 259 259 259 259 258 259 259 260 259 258 258 258 258
253 253 251 251 252 252 249 244 242 243 247 249 247 242 242 245 242 237 238 244 247 246 246 249 251 251 252 251 250 250 250 250 252 255 256 258 260 261 262 262 263 263 264 264 264 265 265 264 263 263 262 261 262 262 262 262 262 262 262 262 262 262 261 260 259 260 260 260 260 260 259 259 259 259 259 259 259 258 259 259 260 259 258 257 257 257
252 250 250 252 252 250 247 241 239 242 246 247 245 242 243 247 246 243 243 245 248 249 251 252 253 254 255 255 254 254 254 256 257 258 260 261 262 262 263 263 263 263 264 264 264 265 266 265 264 264 263 262 263 263 262 262 262 262 262 262 262 262 261 261 260 260 260 261 261 261 261 261 260 260 260 259 258 258 258 258 259 259 259 258 258 257
249 250 250 248 243 243 245 241 238 240 243 244 245 245 245 245 246 248 249 250 252 254 255 255 255 257 258 258 257 256 257 258 259 260 261 262 262 263 264 264 263 264 264 264 264 265 266 266 265 265 265 264 264 264 264 263 263 262 262 262 262 261 261 261 261 261 261 261 261 261 262 261 261 261 261 260 259 258 258 258 259 259 259 259 258 258
248 250 249 243 242 246 247 242 240 240 241 243 245 246 246 246 247 250 252 252 253 254 255 256 257 258 259 258 259 260 260 260 261 262 262 262 263 264 265 264 264 265 266 266 267 267 267 266 266 266 266 266 266 265 265 264 263 263 262 262 262 262 262 262 262 262 262 262 262 262 261 261 261 261 260 260 259 259 259 259 259 259 259 259 259 258
253 251 247 244 247 247 241 236 238 240 240 243 247 247 247 248 249 250 252 253 253 254 256 257 258 259 260 261 261 263 263 262 262 264 265 265 265 265 265 265 265 267 268 268 268 268 268 268 267 267 267 267 266 266 265 264 263 263 263 263 263 263 263 262 262 262 262 262 261 261 261 260 260 260 259 259 259 259 259 259 259 258 258 258 259 260
258 254 249 245 242 239 233 232 236 239 240 244 247 248 250 251 251 253 255 257 258 260 261 262 262 262 263 264 264 265 266 266 266 267 268 268 269 269 269 270 270 270 270 270 269 269 269 269 268 268 268 268 267 267 266 265 265 264 264 263 263 262 262 262 261 261 262 262 262 262 261 260 260 260 259 259 259 259 259 259 258 259 259 260 260 259
256 254 251 246 242 240 235 231 236 243 245 244 244 247 252 254 254 255 258 260 262 264 265 266 267 266 266 267 267 267 269 269 270 271 271 270 270 272 273 273 273 273 272 272 272 271 271 270 270 270 269 269 269 268 268 267 267 266 265 264 264 263 263 262 262 262 262 262 263 262 262 261 261 260 260 260 260 259 259 259 259 259 260 260 259 258
257 255 255 252 247 241 231 227 238 249 245 241 245 249 253 257 258 259 260 262 264 265 266 268 269 269 269 270 269 269 270 271 272 273 272 272 272 272 273 273 273 273 273 273 272 271 271 271 271 271 271 270 270 269 268 268 267 267 266 266 265 265 264 263 263 263 263 263 263 262 262 262 261 261 261 260 260 260 260 260 259 259 259 259 259 258